When you browse on this site, cookies collect data to enhance your experience and personalize the content and advertising you see.
Visit our Privacy Policy to learn more. By continuing to use the site, you agree to this use of cookies and data.
  • In Lithuania
  • List of Countries
  • For 7 days
  • Water Temperature
  • Satellite Maps
  • Weather Map
  • Weather Widgets
  • user-avatar
    Login

    Hourly Weather Hobart

    Today, 20 June, Thursday

    Time Temperature Precipitation Wind Pressure Humidity
    00:00 +3°C° 0 mm 2 mps 753 mmHg 91%
    01:00 +3°C° 0 mm 2 mps 753 mmHg 92%
    02:00 +3°C° 0 mm 2 mps 753 mmHg 92%
    03:00 +3°C° 0 mm 2 mps 753 mmHg 92%
    04:00 +3°C° 0 mm 2 mps 753 mmHg 91%
    05:00 +3°C° 0 mm 2 mps 753 mmHg 91%
    06:00 +3°C° 0 mm 2 mps 753 mmHg 91%
    07:00 +2°C° 0 mm 2 mps 753 mmHg 91%
    08:00 +3°C° 0 mm 3 mps 753 mmHg 86%
    09:00 +4°C° 0 mm 3 mps 753 mmHg 82%
    10:00 +7°C° 0 mm 3 mps 753 mmHg 77%
    11:00 +8°C° 0 mm 3 mps 753 mmHg 73%
    12:00 +8°C° 0 mm 3 mps 753 mmHg 70%
    13:00 +9°C° 0 mm 3 mps 752 mmHg 66%
    14:00 +9°C° 0.2 mm 3 mps 752 mmHg 70%
    15:00 +8°C° 0.2 mm 3 mps 752 mmHg 73%
    16:00 +8°C° 0.2 mm 3 mps 752 mmHg 77%
    17:00 +7°C° 0.3 mm 3 mps 752 mmHg 81%
    18:00 +5°C° 0.3 mm 3 mps 752 mmHg 86%
    19:00 +4°C° 0.3 mm 3 mps 753 mmHg 90%
    20:00 +4°C° 0.3 mm 3 mps 753 mmHg 90%
    21:00 +4°C° 0.3 mm 3 mps 753 mmHg 89%
    22:00 +4°C° 0.3 mm 3 mps 754 mmHg 89%
    23:00 +4°C° 0.2 mm 3 mps 754 mmHg 90%

    Tomorrow, 21 June, Friday

    Time Temperature Precipitation Wind Pressure Humidity
    00:00 +4°C° 0.2 mm 3 mps 754 mmHg 90%
    01:00 +4°C° 0.2 mm 3 mps 753 mmHg 91%
    02:00 +4°C° 0.2 mm 3 mps 754 mmHg 91%
    03:00 +4°C° 0.2 mm 3 mps 754 mmHg 90%
    04:00 +4°C° 0.2 mm 3 mps 754 mmHg 90%
    05:00 +4°C° 0.2 mm 3 mps 754 mmHg 90%
    06:00 +4°C° 0.2 mm 3 mps 754 mmHg 90%
    07:00 +4°C° 0.2 mm 3 mps 754 mmHg 91%
    08:00 +4°C° 0.1 mm 3 mps 755 mmHg 88%
    09:00 +5°C° 0.1 mm 3 mps 755 mmHg 85%
    10:00 +7°C° 0.1 mm 3 mps 755 mmHg 83%
    11:00 +7°C° 0.1 mm 3 mps 755 mmHg 78%
    12:00 +7°C° 0.1 mm 4 mps 755 mmHg 74%
    13:00 +8°C° 0.1 mm 4 mps 755 mmHg 70%
    14:00 +7°C° 0.1 mm 4 mps 756 mmHg 72%
    15:00 +8°C° 0.1 mm 3 mps 756 mmHg 74%
    16:00 +7°C° 0.1 mm 3 mps 756 mmHg 76%
    17:00 +5°C° 0 mm 3 mps 756 mmHg 80%
    18:00 +4°C° 0 mm 3 mps 756 mmHg 84%
    19:00 +4°C° 0 mm 2 mps 756 mmHg 88%
    20:00 +4°C° 0 mm 2 mps 757 mmHg 88%
    21:00 +3°C° 0 mm 2 mps 757 mmHg 89%
    22:00 +3°C° 0 mm 2 mps 757 mmHg 89%
    23:00 +4°C° 0.2 mm 2 mps 757 mmHg 88%

    Day after tomorrow, 22 June, Saturday

    Time Temperature Precipitation Wind Pressure Humidity
    00:00 +4°C° 0.2 mm 2 mps 757 mmHg 87%
    01:00 +4°C° 0.2 mm 2 mps 757 mmHg 87%
    02:00 +5°C° 0.3 mm 2 mps 757 mmHg 88%
    03:00 +5°C° 0.3 mm 2 mps 757 mmHg 90%
    04:00 +5°C° 0.3 mm 2 mps 757 mmHg 91%
    05:00 +5°C° 0 mm 2 mps 757 mmHg 92%
    06:00 +4°C° 0 mm 2 mps 757 mmHg 93%
    07:00 +4°C° 0 mm 2 mps 758 mmHg 93%
    08:00 +5°C° 0 mm 2 mps 758 mmHg 90%
    09:00 +7°C° 0 mm 1 mps 758 mmHg 87%
    10:00 +8°C° 0 mm 1 mps 759 mmHg 84%
    11:00 +9°C° 0 mm 1 mps 758 mmHg 80%
    12:00 +9°C° 0 mm 1 mps 758 mmHg 75%
    13:00 +10°C° 0 mm 1 mps 758 mmHg 71%
    14:00 +10°C° 0 mm 1 mps 758 mmHg 73%
    15:00 +9°C° 0 mm 1 mps 758 mmHg 75%
    16:00 +8°C° 0 mm 0 mps 758 mmHg 77%
    17:00 +8°C° 0 mm 1 mps 758 mmHg 81%
    18:00 +7°C° 0 mm 1 mps 758 mmHg 85%
    19:00 +6°C° 0 mm 1 mps 758 mmHg 88%
    20:00 +6°C° 0 mm 1 mps 759 mmHg 89%
    21:00 +5°C° 0 mm 1 mps 759 mmHg 90%
    22:00 +5°C° 0 mm 1 mps 759 mmHg 91%
    23:00 +5°C° 0 mm 1 mps 759 mmHg 92%

    23 June, Sunday

    Time Temperature Precipitation Wind Pressure Humidity
    00:00 +5°C° 0 mm 1 mps 759 mmHg 92%
    01:00 +4°C° 0 mm 1 mps 759 mmHg 93%
    02:00 +4°C° 0 mm 1 mps 759 mmHg 93%
    03:00 +4°C° 0 mm 1 mps 759 mmHg 94%
    04:00 +4°C° 0 mm 1 mps 759 mmHg 94%
    05:00 +4°C° 0 mm 1 mps 759 mmHg 94%
    06:00 +3°C° 0 mm 1 mps 759 mmHg 93%
    07:00 +3°C° 0 mm 1 mps 760 mmHg 93%
    08:00 +4°C° 0 mm 1 mps 760 mmHg 88%
    09:00 +6°C° 0 mm 1 mps 760 mmHg 82%
    10:00 +7°C° 0 mm 1 mps 760 mmHg 77%
    11:00 +8°C° 0 mm 1 mps 760 mmHg 71%
    12:00 +9°C° 0 mm 1 mps 760 mmHg 65%
    13:00 +9°C° 0 mm 0 mps 760 mmHg 59%
    14:00 +8°C° 0 mm 0 mps 760 mmHg 63%
    15:00 +8°C° 0 mm 0 mps 760 mmHg 66%
    16:00 +7°C° 0 mm 0 mps 760 mmHg 70%
    17:00 +7°C° 0 mm 1 mps 760 mmHg 75%
    18:00 +6°C° 0 mm 1 mps 760 mmHg 80%
    19:00 +5°C° 0 mm 1 mps 760 mmHg 84%
    20:00 +4°C° 0 mm 1 mps 760 mmHg 86%
    21:00 +4°C° 0 mm 1 mps 761 mmHg 88%
    22:00 +2°C° 0 mm 2 mps 761 mmHg 89%
    23:00 +3°C° 0 mm 1 mps 761 mmHg 90%

    24 June, Monday

    Time Temperature Precipitation Wind Pressure Humidity
    00:00 +3°C° 0 mm 1 mps 761 mmHg 91%
    01:00 +3°C° 0 mm 1 mps 761 mmHg 91%
    02:00 +3°C° 0 mm 1 mps 761 mmHg 91%
    03:00 +1°C° 0 mm 2 mps 761 mmHg 92%
    04:00 +1°C° 0 mm 2 mps 760 mmHg 92%
    05:00 +1°C° 0 mm 2 mps 761 mmHg 91%
    06:00 +1°C° 0 mm 2 mps 761 mmHg 91%
    07:00 +1°C° 0 mm 2 mps 761 mmHg 90%
    08:00 +2°C° 0 mm 2 mps 761 mmHg 83%
    09:00 +4°C° 0 mm 2 mps 761 mmHg 76%
    10:00 +5°C° 0 mm 2 mps 761 mmHg 68%
    11:00 +7°C° 0 mm 2 mps 761 mmHg 61%
    12:00 +9°C° 0 mm 2 mps 760 mmHg 54%
    13:00 +12°C° 0 mm 2 mps 760 mmHg 48%
    14:00 +11°C° 0 mm 1 mps 759 mmHg 53%
    15:00 +10°C° 0 mm 1 mps 759 mmHg 58%
    16:00 +8°C° 0 mm 0 mps 759 mmHg 63%
    17:00 +7°C° 0 mm 0 mps 759 mmHg 68%
    18:00 +6°C° 0 mm 0 mps 760 mmHg 74%
    19:00 +4°C° 0 mm 0 mps 760 mmHg 80%
    20:00 +5°C° 0 mm 1 mps 760 mmHg 81%
    21:00 +4°C° 0 mm 2 mps 760 mmHg 83%
    22:00 +3°C° 0 mm 2 mps 760 mmHg 84%
    23:00 +3°C° 0 mm 2 mps 760 mmHg 85%

    25 June, Tuesday

    Time Temperature Precipitation Wind Pressure Humidity
    00:00 +2°C° 0 mm 3 mps 760 mmHg 86%
    01:00 +2°C° 0 mm 3 mps 760 mmHg 87%
    02:00 +3°C° 0 mm 2 mps 760 mmHg 86%
    03:00 +2°C° 0 mm 2 mps 760 mmHg 84%
    04:00 +2°C° 0 mm 2 mps 760 mmHg 83%
    05:00 +2°C° 0 mm 2 mps 760 mmHg 82%
    06:00 +2°C° 0 mm 2 mps 760 mmHg 80%
    07:00 +2°C° 0 mm 2 mps 761 mmHg 78%
    08:00 +4°C° 0 mm 2 mps 761 mmHg 75%
    09:00 +5°C° 0 mm 2 mps 761 mmHg 73%
    10:00 +6°C° 0 mm 2 mps 761 mmHg 70%
    11:00 +7°C° 0 mm 2 mps 761 mmHg 67%
    12:00 +9°C° 0 mm 2 mps 761 mmHg 64%
    13:00 +10°C° 0 mm 2 mps 760 mmHg 60%
    14:00 +10°C° 0 mm 2 mps 760 mmHg 63%
    15:00 +9°C° 0 mm 2 mps 760 mmHg 66%
    16:00 +9°C° 0 mm 2 mps 760 mmHg 69%
    17:00 +8°C° 0 mm 2 mps 761 mmHg 75%
    18:00 +7°C° 0 mm 2 mps 761 mmHg 80%
    19:00 +6°C° 0 mm 2 mps 761 mmHg 86%
    20:00 +5°C° 0 mm 2 mps 761 mmHg 86%
    21:00 +5°C° 0 mm 2 mps 762 mmHg 87%
    22:00 +4°C° 0 mm 3 mps 762 mmHg 87%
    23:00 +5°C° 0 mm 2 mps 762 mmHg 88%
    Show more